Location: Arbor Creek Middle School
(33.0349°N, 96.8733°W)
Time: 13:40:34
(UTC+00:00)

Daily predictions for brighter satellites

Satellite Brightness Start Highest point End
(mag) Time Altitude Azimuth Time Altitude Azimuth Time Altitude Azimuth
Meteor PRIRODA 4.2 12:03:53 10° NNE 12:07:28 60° E 12:11:03 10° S
CZ-4B R/B 3.5 12:04:49 10° NNE 12:08:20 52° E 12:11:54 10° S
H-2A R/B 4.2 12:05:18 10° SE 12:08:47 25° ENE 12:12:20 10° NNE
Meteor 2-19 Rocket 4.3 12:05:17 10° SSW 12:11:19 72° W 12:17:22 10° N
Cosmos 1812 3.8 12:12:01 22° W 12:12:28 22° W 12:15:29 10° SW
Cosmos 1151 Rocket 3.8 12:10:05 16° NW 12:12:49 31° W 12:16:39 10° SSW
Cosmos 1340 Rocket 2.8 12:09:28 10° S 12:13:23 85° E 12:17:23 10° N
SL-27 R/B 3.2 12:09:58 10° N 12:13:27 52° ENE 12:16:51 10° SSE
NOAA 11 4.1 12:10:19 10° N 12:15:48 78° WNW 12:21:17 10° SSW
Cosmos 783 Rocket 4.5 12:14:13 10° NNW 12:19:26 89° ENE 12:24:38 10° SSE
OAO 2 Rocket 4.0 12:15:13 10° SW 12:20:18 55° SSE 12:25:17 10° E
CZ-2C R/B 3.0 12:15:21 10° NNE 12:20:21 89° ESE 12:25:37 10° SSW
SL-8 R/B 4.4 12:16:55 13° NW 12:21:01 47° NE 12:25:36 10° ESE
ATLAS 5 CENTAUR R/B 2.1 12:20:01 11° WSW 12:23:09 27° NW 12:26:37 10° N
Cosmos 1777 Rocket 4.2 12:18:49 10° SW 12:23:47 46° WNW 12:28:49 10° N
Cosmos 773 Rocket 3.9 12:28:06 10° NNW 12:33:18 76° WSW 12:38:25 10° S
CZ-4B R/B 4.1 12:31:01 10° ESE 12:33:25 19° ENE 12:35:46 10° NNE
BREEZE-M DEB 4.0 12:31:18 12° W 12:33:49 34° NNW 12:40:37 10° NE
USA 32 4.5 12:29:37 10° N 12:34:50 67° E 12:40:02 10° SSE
Meteor 1-27 Rocket 3.8 12:29:26 10° N 12:35:08 79° W 12:40:57 10° S
Cosmos 1939 Rocket 2.7 12:37:27 10° N 12:41:21 79° WNW 12:45:11 10° SSW
Alouette 2 Rocket 3.6 12:38:29 10° N 12:42:00 66° E 12:45:56 10° SSE
DMSP B5D2-2 4.1 12:37:44 10° S 12:42:57 77° W 12:48:09 10° NNW
COSMO-SKYMED 1 3.9 12:40:07 10° SSW 12:43:28 22° W 12:46:48 10° NW
Meteor 1-31 Rocket 4.5 12:42:05 10° NW 12:44:05 14° WNW 12:46:05 10° W
SL-4 R/B 1.8 12:41:51 10° WSW 12:45:13 50° NW 12:48:48 10° NE
Envisat 4.5 12:44:32 10° NNW 12:47:18 15° WNW 12:50:03 10° W
NOAA 6 4.1 12:44:37 10° NNE 12:49:45 85° ESE 12:54:52 10° SSW
Cosmos 2026 Rocket 4.1 12:46:20 10° S 12:52:41 81° W 12:59:00 10° N
Cosmos 1634 Rocket 4.1 23:37:02 10° S 23:43:19 76° E 23:49:38 10° N
Cosmos 2084 3.8 23:39:06 10° NNW 23:43:30 79° WSW 23:48:03 10° SSE
Cosmos 1500 Rocket 4.1 23:41:17 10° NNW 23:45:39 64° W 23:49:57 10° S
Cosmos 1937 Rocket 3.6 23:41:14 10° N 23:46:31 63° ENE 23:51:45 10° SSE
USA 276 2.3 23:44:21 10° NW 23:47:28 73° SW 23:50:33 10° SE
Cosmos 1900 4.3 23:43:40 10° SSW 23:48:30 76° ESE 23:53:22 10° NNE
Sich 1 3.1 23:45:33 10° N 23:49:47 56° E 23:54:02 10° SSE
USA 267 4.3 23:44:10 10° NNE 23:50:07 39° NW 23:56:03 10° WSW
Cosmos 372 Rocket 4.4 23:45:27 10° N 23:50:24 41° ENE 23:55:20 10° SE
DEBRIS 3.0 23:50:31 10° SSW 23:52:20 27° SE 23:55:00 10° ENE
Cosmos 2026 Rocket 3.9 23:46:38 10° N 23:52:42 68° E 23:58:42 10° SSE
APEX 4.2 23:50:49 10° S 23:54:37 30° ESE 23:57:49 10° NE
